Вернуться в каталог

STARLINK-37360

АктивенСвязьSSO
NORAD 68901·PAYLOAD·🇺🇸 United States

Запущен Apr 30, 2026 с Vandenberg Space Force Base

Loading…

Ближайшие Пролёты (ближайшие 24 часа)

TLE

СвежийSource: CelesTrak SupGP

Эпоха: Sep 15, 2026, 04:15 UTC

1 68901C 26097G   26258.17756944 -.00048822  00000+0 -15148-2 0  2588
2 68901  97.2854  92.4564 0001819  94.7633 141.7424 15.33479587    18

Отслеживайте STARLINK-37360 в реальном времени с AllMySat

Download on the App Store